Погода в Те-Анау

Новая Зеландия     45°24′56″S   167°43′08″E
темп.,
°C
ветер,
м/с
пор.,
м/с
влажн.,
%
обл.,
%
осадки,
мм/ч
давл.,
гПа
погр.,
м
22 января, сб
сб2201:00+9ю119913 0.0 102115
04:00+8ююв119920 0.0 102012
07:00+7ююв119929 0.0 102117
10:00+15з01630 0.0 1020444
13:00+22з13304 0.0 1017877
16:00+22зюз35415 0.0 1016757
19:00+21зюз364871 0.0 1016697
22:00+12ююз248432 0.0 1017137
23 января, вс
вс2301:00+8ю1299100 0.0 101933
04:00+7ю119916 0.0 101920
07:00+6ююз119882 0.0 101924
10:00+14зюз126213 0.0 1018796
13:00+20зюз11370 0.0 10151314
16:00+22юз22311 0.0 10131520
19:00+20ю23410 0.0 1012912
22:00+9ю12820 0.0 101645
24 января, пн
пн2401:00+5ю11988 0.0 101821
04:00+4ююв119923 0.0 101617
07:00+3вюв1110039 0.0 101720
10:00+11зсз1166100 0.0 1016505
13:00+19зсз11442 0.0 1012803
16:00+23зсз23346 0.0 10091451
19:00+19ююз35495 0.0 1009515
22:00+10ю2284100 0.0 101251
25 января, вт
вт2501:00+7ююв1197100 0.0 101317
04:00+6вюв1198100 0.0 101214
07:00+6в1199100 0.0 101220
10:00+14ссв1162100 0.0 1010428
13:00+22ссз13340 0.0 10071334
16:00+24зсз242849 0.0 10042159
19:00+20з3541100 0.0 1005929
22:00+13зюз1172100 0.0 100618
26 января, ср
ср2601:00+8юз01865 0.0 100812
04:00+7всв11930 0.0 100713
07:00+8всв1582100 0.1 1006169
10:00+10з1498100 1.0 1004262
13:00+15зсз27761 2.1 10041297
16:00+16з58469 0.1 10051937
19:00+15зюз354294 0.2 10062285
22:00+8ююз116911 0.0 101129